Regional Weather Roundup
Issued by NWS

Home | Current Version | Previous Version | Text Only | Print | Product List | Glossary Off
Versions: 1 2 3 4 5 6 7 8 9 10 11 12 13 14 15 16 17 18 19 20 21 22 23 24 25 26 27 28

000
ASUS45 KBOU 301107
RWRCO

WEATHER ROUNDUP FOR COLORADO
NATIONAL WEATHER SERVICE DENVER/BOULDER CO
500 AM MDT THU OCT 30 2014

NOTE: "FAIR" INDICATES FEW OR NO CLOUDS BELOW 12000 FEET WITH NO
SIGNIFICANT WEATHER AND/OR OBSTRUCTIONS TO VISIBILITY.

COZ001>005-013-030-031-301200-
...NORTHWEST COLORADO...

CITY           SKY/WX    TMP DP  RH WIND       PRES   REMARKS
CRAIG          CLOUDY    27  23  85 CALM      30.38S
HAYDEN         MOCLDY    34  21  60 SE3       30.38R
MEEKER         CLEAR     29  22  75 CALM      30.39R
MOUNT WERNER   NOT AVBL
STEAMBOAT SPGS CLOUDY    35  24  64 CALM      30.38S
WALDEN         CLEAR     30  21  69 E3        30.38R
$$

COZ006>008-011-301200-
...WEST CENTRAL VALLEYS...

CITY           SKY/WX    TMP DP  RH WIND       PRES   REMARKS
GRAND JUNCTION CLEAR     35  20  54 SE6       30.32S WCI  30
MONTROSE       PTCLDY    32  20  61 SE6       30.38R WCI  26
EAGLE          PTCLDY    27  19  74 CALM      30.44R
RIFLE          CLEAR     31  20  63 S3        30.38R
DELTA          PTCLDY    34  19  53 CALM      30.37R
NUCLA          PTCLDY    34  16  47 SE8       30.39R WCI  27
$$

COZ017>023-064>068-301200-
...SOUTHWEST COLORADO...

CITY           SKY/WX    TMP DP  RH WIND       PRES   REMARKS
DURANGO        PTCLDY    27  21  78 CALM      30.34S
CORTEZ         CLEAR     31  18  58 E7        30.32S WCI  24
PAGOSA SPRINGS PTCLDY    29  20  69 CALM      30.38S
TELLURIDE      PTCLDY    36  12  37 SE6       30.47S
WOLF CREEK PAS CLEAR     36  14  41 N3        30.54S
$$

COZ009-010-012-014-032>034-037-058>063-301200-
...CENTRAL COLORADO...

CITY           SKY/WX    TMP DP  RH WIND       PRES   REMARKS
ASPEN          CLEAR     26  18  71 S7        30.41R WCI  18
BUENA VISTA    PTCLDY    26  16  66 W5        30.39R WCI  20
COPPER MTN     CLEAR     30  18  59 W16G22    30.51S WCI  19
BERTHOUD PASS  FAIR      23  21  93 NW25G43   30.49R WCI   7
COTTONWOOD PAS PTCLDY    43  12  28 CALM      30.44R
GUNNISON       CLEAR     23  10  58 NE3       30.45R
KREMMLING      MOCLDY    27  21  80 CALM        N/A
LEADVILLE      CLEAR     31  13  47 NE9       30.44R WCI  23
MONARCH PASS   PTCLDY    30  14  51 W17       30.61R WCI  18
SALIDA         PTCLDY    35  15  45 CALM      30.45R
SUNLIGHT       CLEAR     34  16  47 CALM      30.52R
WILKERSON PASS NOT AVBL
$$

COZ069>075-301200-
...SAN LUIS VALLEY/SANGRE DE CRISTO MOUNTAINS...

CITY           SKY/WX    TMP DP  RH WIND       PRES   REMARKS
ALAMOSA        PTCLDY    22  13  68 SW10      30.37S WCI  11
LA VETA PASS   CLEAR     39  14  35 W10       30.44R
SAGUACHE       CLEAR     34  14  44 NW10      30.40R WCI  26
$$

COZ035-036-038>040-301200-
...NORTHERN COLORADO FRONT RANGE...

CITY           SKY/WX    TMP DP  RH WIND       PRES   REMARKS
DENVER INTL AP PTCLDY    45  24  43 CALM      30.31R
DMNS CITY PARK   N/A     41  23  49 S3        30.33R
AURORA         PTCLDY    41  24  50 CALM      30.33R
FRONT RANGE AP CLEAR     43  27  52 NW5       30.32R
ERIE MUNI ARPT CLEAR     37  27  65 SW3       30.31R
BOULDER MUN AP CLEAR     41  25  52 CALM      30.31R
CENTENNIAL     PTCLDY    39  25  57 CALM      30.33R
BROOMFIELD     CLEAR     45  23  42 CALM      30.33R
FORT COLLINS   CLEAR     46  27  46 CALM      30.32R
LONGMONT       CLEAR     37  28  68 W5        30.33R
$$

COZ041-046-047-076>085-087-088-301200-
...PIKES PEAK/PALMER DIVIDE AND SOUTHERN FOOTHILLS...

CITY           SKY/WX    TMP DP  RH WIND       PRES   REMARKS
COLO. SPRINGS  CLEAR     45  23  42 NW8       30.32R
A. F. ACADEMY  CLEAR     35  21  55 N10       30.33R WCI  28
ELLICOTT       CLEAR     40  22  48 N9        30.30R
FALCON         CLEAR     40  21  46 N9        30.34R
FORT CARSON    CLEAR     42  21  43 N12       30.30R
LIMON          CLEAR     34  23  64 N10       30.29R WCI  26
MONUMENT HILL  CLEAR     30  21  69 W5        30.35R WCI  25
TRINIDAD       PTCLDY    36  16  44 W8        30.29R
$$

COZ042>045-048>051-090-091-301200-
...NORTHEAST COLORADO...

CITY           SKY/WX    TMP DP  RH WIND       PRES   REMARKS
GREELEY ARPT   CLEAR     43  21  42 N3        30.30R
AKRON          CLEAR     37  24  59 W5        30.27R
BURLINGTON     CLEAR     33  23  66 W8        30.24R WCI  26
WRAY           CLEAR     39  26  58 W7        30.23R
STERLING       CLEAR     43  30  61 NW9       30.25R
HOLYOKE        CLEAR     41  27  56 W10       30.23R
FORT MORGAN    CLEAR     41  24  51 N6        30.28R
$$

COZ086-089-092>099-301200-
...SOUTHEAST COLORADO...

CITY           SKY/WX    TMP DP  RH WIND       PRES   REMARKS
PUEBLO         CLEAR     35  22  58 W7        30.27R WCI  29
LA JUNTA       CLEAR     38  25  59 W12       30.24R
LAMAR          CLEAR     37  26  64 SW6       30.20R
SPRINGFIELD      N/A     40  26  57 NW10      30.21R
$$



USA.gov is the U.S. government's official web portal to all federal, state and local government web resources and services.